Date String (YYYY-MM-DD hh:mm:ss) UTC,Instrument flags,Ambient pressure (hPa),Sample flow (lpm),Bypass flow (lpm),Sample temperature (°C),Ambient temperature (°C),ASC tube jacket temperature (°C),LED temperature (°C),Box temperature (°C),Sample RH (%),Span deviation,Mass concentration (μg/m³),Mass concentration (μg/m³),Mass concentration (μg/m³)
DateTimeUTC,F1_M11,P_M11,Q1_M11,Q2_M11,T1_M11,T2_M11,T3_M11,T4_M11,T5_M11,U1_M11,ZSPAN_M11,X0_M11,X2_M11,X1_M11
2022-05-01 00:00:00,,0823.5,5.02,0.00,27.2,26.6,00.0,36.1,29.1,08.9,0000.0,0013.30,0005.21,0004.06
2022-05-01 00:01:00,,0823.5,5.00,0.00,27.2,26.6,00.0,36.1,29.1,08.6,0000.0,0013.46,0005.22,0004.07
2022-05-01 00:02:00,,0823.6,4.99,0.00,27.2,26.5,00.0,36.1,29.0,08.6,0000.0,0013.49,0005.17,0004.06
2022-05-01 00:03:00,,0823.6,5.00,0.00,27.2,26.5,00.0,36.1,29.0,08.7,0000.0,0013.39,0005.20,0004.07
2022-05-01 00:04:00,,0823.6,5.01,0.00,27.2,26.5,00.0,36.1,29.0,08.6,0000.0,0014.12,0005.23,0004.08
2022-05-01 00:05:00,,0823.6,5.01,0.00,27.2,26.5,00.0,36.1,29.0,08.7,0000.0,0013.97,0005.26,0004.09
2022-05-01 00:06:00,,0823.6,5.00,0.00,27.2,26.5,00.0,36.1,29.0,08.7,0000.0,0013.60,0005.24,0004.09
2022-05-01 00:07:00,,0823.6,5.00,0.00,27.2,26.6,00.0,36.1,29.0,08.7,0000.0,0013.35,0005.21,0004.09
2022-05-01 00:08:00,,0823.6,5.00,0.00,27.2,26.5,00.0,36.1,29.0,08.8,0000.0,0013.43,0005.19,0004.08
2022-05-01 00:09:00,,0823.6,4.99,0.00,27.2,26.5,00.0,36.1,29.0,08.7,0000.0,0013.56,0005.17,0004.08
2022-05-01 00:10:00,,0823.6,4.99,0.00,27.2,26.6,00.0,36.1,29.0,08.9,0000.0,0014.35,0005.22,0004.09
2022-05-01 00:11:00,,0823.6,5.00,0.00,27.2,26.5,00.0,36.1,29.0,08.7,0000.0,0015.57,0005.24,0004.08
2022-05-01 00:12:00,,0823.6,5.01,0.00,27.2,26.5,00.0,36.2,29.0,08.7,0000.0,0015.68,0005.26,0004.07
2022-05-01 00:13:00,,0823.6,5.01,0.00,27.2,26.5,00.0,36.2,29.0,08.7,0000.0,0015.46,0005.28,0004.07
2022-05-01 00:14:00,,0823.6,4.99,0.00,27.2,26.5,00.0,36.1,29.0,08.7,0000.0,0015.50,0005.25,0004.06
2022-05-01 00:15:00,,0823.6,4.99,0.00,27.2,26.4,00.0,36.1,29.0,08.7,0000.0,0014.79,0005.24,0004.04
2022-05-01 00:16:00,,0823.6,5.02,0.00,27.2,26.5,00.0,36.1,29.0,08.7,0000.0,0014.51,0005.21,0004.02
2022-05-01 00:17:00,,0823.6,4.99,0.00,27.2,26.5,00.0,36.1,29.0,08.7,0000.0,0014.07,0005.15,0004.01
2022-05-01 00:18:00,,0823.6,4.99,0.00,27.2,26.5,00.0,36.2,29.0,08.9,0000.0,0014.19,0005.18,0004.02
2022-05-01 00:19:00,,0823.7,4.99,0.00,27.2,26.6,00.0,36.2,29.0,08.7,0000.0,0014.35,0005.15,0004.02
2022-05-01 00:20:00,,0823.6,5.01,0.00,27.3,26.6,00.0,36.2,29.1,08.7,0000.0,0014.31,0005.11,0004.01
2022-05-01 00:21:00,,0823.6,5.00,0.00,27.3,26.6,00.0,36.2,29.1,08.8,0000.0,0014.32,0005.06,0003.98
2022-05-01 00:22:00,,0823.6,4.99,0.00,27.3,26.7,00.0,36.2,29.1,08.8,0000.0,0012.98,0005.01,0003.96
2022-05-01 00:23:00,,0823.7,5.00,0.00,27.3,26.7,00.0,36.2,29.1,08.9,0000.0,0012.95,0004.97,0003.93
2022-05-01 00:24:00,,0823.7,5.01,0.00,27.3,26.7,00.0,36.2,29.2,08.8,0000.0,0014.55,0004.98,0003.91
2022-05-01 00:25:00,,0823.6,5.00,0.00,27.3,26.8,00.0,36.2,29.2,08.8,0000.0,0014.94,0004.92,0003.89
2022-05-01 00:26:00,,0823.6,5.00,0.00,27.4,26.8,00.0,36.2,29.2,08.8,0000.0,0015.81,0004.89,0003.88
2022-05-01 00:27:00,,0823.6,5.00,0.00,27.4,26.8,00.0,36.2,29.2,08.7,0000.0,0016.43,0004.88,0003.88
2022-05-01 00:28:00,,0823.6,5.02,0.00,27.4,26.8,00.0,36.2,29.2,08.7,0000.0,0016.34,0004.88,0003.85
2022-05-01 00:29:00,,0823.6,5.00,0.00,27.4,26.8,00.0,36.2,29.2,08.8,0000.0,0016.32,0004.87,0003.84
2022-05-01 00:30:00,,0823.6,4.99,0.00,27.4,26.8,00.0,36.3,29.2,08.8,0000.0,0015.65,0004.84,0003.82
2022-05-01 00:31:00,,0823.6,5.00,0.00,27.4,26.7,00.0,36.3,29.2,08.6,0000.0,0014.96,0004.84,0003.83
2022-05-01 00:32:00,,0823.6,5.00,0.00,27.4,26.7,00.0,36.3,29.2,08.6,0000.0,0014.26,0004.86,0003.85
2022-05-01 00:33:00,,0823.6,5.01,0.00,27.4,26.7,00.0,36.3,29.2,08.5,0000.0,0013.80,0004.86,0003.86
2022-05-01 00:34:00,,0823.6,4.99,0.00,27.4,26.7,00.0,36.3,29.2,08.6,0000.0,0013.53,0004.81,0003.88
2022-05-01 00:35:00,,0823.6,4.99,0.00,27.4,26.7,00.0,36.3,29.2,08.5,0000.0,0011.90,0004.74,0003.89
2022-05-01 00:36:00,,0823.6,5.01,0.00,27.4,26.7,00.0,36.3,29.2,08.7,0000.0,0011.74,0004.77,0003.89
2022-05-01 00:37:00,,0823.6,4.99,0.00,27.4,26.8,00.0,36.3,29.2,08.6,0000.0,0011.91,0004.80,0003.89
2022-05-01 00:38:00,,0823.6,4.99,0.00,27.4,26.7,00.0,36.3,29.2,08.6,0000.0,0010.94,0004.81,0003.88
2022-05-01 00:39:00,,0823.6,4.99,0.00,27.4,26.7,00.0,36.3,29.2,08.6,0000.0,0011.82,0004.80,0003.89
2022-05-01 00:40:00,,0823.6,5.02,0.00,27.4,26.7,00.0,36.3,29.2,08.6,0000.0,0013.16,0004.80,0003.89
2022-05-01 00:41:00,,0823.6,5.00,0.00,27.4,26.7,00.0,36.3,29.2,08.7,0000.0,0013.49,0004.82,0003.89
2022-05-01 00:42:00,,0823.6,4.99,0.00,27.4,26.6,00.0,36.3,29.2,08.7,0000.0,0013.80,0004.87,0003.89
2022-05-01 00:43:00,,0823.6,5.01,0.00,27.4,26.6,00.0,36.3,29.2,08.6,0000.0,0014.84,0004.84,0003.87
2022-05-01 00:44:00,,0823.6,5.01,0.00,27.4,26.6,00.0,36.3,29.2,08.7,0000.0,0015.82,0004.80,0003.84
2022-05-01 00:45:00,,0823.6,5.00,0.00,27.4,26.6,00.0,36.3,29.2,08.8,0000.0,0015.98,0004.82,0003.82
2022-05-01 00:46:00,,0823.6,4.99,0.00,27.4,26.7,00.0,36.3,29.2,08.8,0000.0,0015.90,0004.85,0003.77
2022-05-01 00:47:00,,0823.6,5.00,0.00,27.4,26.7,00.0,36.3,29.2,08.8,0000.0,0015.72,0004.82,0003.72
2022-05-01 00:48:00,,0823.6,4.99,0.00,27.4,26.7,00.0,36.3,29.2,08.9,0000.0,0014.49,0004.77,0003.68
2022-05-01 00:49:00,,0823.6,5.00,0.00,27.4,26.7,00.0,36.3,29.2,08.8,0000.0,0014.05,0004.72,0003.64
2022-05-01 00:50:00,,0823.6,5.01,0.00,27.4,26.6,00.0,36.3,29.2,09.0,0000.0,0013.50,0004.68,0003.58
2022-05-01 00:51:00,,0823.6,4.99,0.00,27.4,26.6,00.0,36.3,29.2,09.0,0000.0,0013.47,0004.62,0003.52
2022-05-01 00:52:00,,0823.6,4.99,0.00,27.4,26.6,00.0,36.3,29.2,09.0,0000.0,0014.10,0004.55,0003.47
2022-05-01 00:53:00,,0823.7,5.01,0.00,27.4,26.6,00.0,36.3,29.2,08.9,0000.0,0014.62,0004.49,0003.43
2022-05-01 00:54:00,,0823.6,5.00,0.00,27.4,26.6,00.0,36.3,29.2,08.9,0000.0,0013.86,0004.45,0003.40
2022-05-01 00:55:00,,0823.6,5.00,0.00,27.4,26.6,00.0,36.3,29.1,08.9,0000.0,0012.87,0004.43,0003.38
2022-05-01 00:56:00,,0823.6,4.99,0.00,27.4,26.6,00.0,36.3,29.1,08.9,0000.0,0013.23,0004.39,0003.37
2022-05-01 00:57:00,,0823.6,5.01,0.00,27.4,26.6,00.0,36.3,29.1,08.8,0000.0,0013.39,0004.34,0003.37
2022-05-01 00:58:00,,0823.6,5.01,0.00,27.3,26.5,00.0,36.3,29.1,08.8,0000.0,0013.16,0004.30,0003.37
2022-05-01 00:59:00,,0823.7,4.98,0.00,27.3,26.5,00.0,36.3,29.1,08.8,0000.0,0013.11,0004.23,0003.37
